QPF
0.00 0.00 0.00 0.00 0.00 0.00 0.00 0.00 0.00 0.00 0.00 0.00 0.00 0.00 0.00 0.00 0.00 0.00 0.00 0.00 0.00 0.00 0.00 0.00 0.00 0.00 0.00 0.00 0.00 0.00 0.00 0.00 0.00 0.00 0.00 0.00 0.00 0.00 0.00 0.00 0.00 0.00 0.00 0.00 0.00 0.00 0.00 0.00 0.00 0.00 0.00 0.00 0.00 0.00
0.00 0.00 0.00 0.00 0.00 0.00 0.00 0.00 0.00 0.00 0.00 0.00 0.00 0.00 0.00 0.00 0.00 0.00 0.00 0.00 0.00 0.00 0.00 0.00 0.00 0.00 0.00 0.00 0.00 0.00 0.00 0.00 0.00 0.00 0.00 0.00 0.00 0.00 0.00 0.00 0.00 0.00 0.00 0.00 0.00 0.00 0.00 0.00 0.00 0.00 0.00 0.00 0.00 0.00
0.00 0.00 0.00 0.00 0.00 0.00 0.00 0.00 0.00 0.00 0.00 0.00 0.00 0.00 0.00 0.00 0.00 0.00 0.00 0.00 0.00 0.00 0.00 0.00 0.00 0.00 0.00 0.00 0.00 0.00 0.00 0.00 0.00 0.00 0.00 0.00 0.00 0.00 0.00 0.00 0.00 0.00 0.00 0.00 0.00 0.00 0.00 0.00 0.00 0.00 0.00 0.00 0.00 0.00
0.00 0.00 0.00 0.00 0.00 0.00 0.00 0.00 0.00 0.00 0.00 0.00 0.00 0.00 0.00 0.00 0.00 0.00 0.00 0.00 0.00 0.00 0.00 0.00 0.00 0.00 0.00 0.00 0.00 0.00 0.00 0.00 0.00 0.00 0.00 0.00 0.00 0.00 0.00 0.00 0.00 0.00 0.00 0.00 0.00 0.00 0.00 0.00 0.00 0.00 0.00 0.00 0.00 0.00
0.00 0.00 0.00 0.00 0.00 0.00 0.00 0.00 0.00 0.00 0.00 0.00 0.00 0.00 0.00 0.00 0.00 0.00 0.00 0.00 0.00 0.00 0.00 0.00 0.00 0.00 0.00 0.00 0.00 0.00 0.00 0.00 0.00 0.00 0.00 0.00 0.00 0.00 0.00 0.00 0.00 0.00 0.00 0.00 0.00 0.00 0.00 0.00 0.00 0.00 0.00 0.00 0.00 0.00
0.00 0.00 0.00 0.00 0.00 0.00 0.00 0.00 0.00 0.00 0.00 0.00 0.00 0.00 0.00 0.00 0.00 0.00 0.00 0.00 0.00 0.00 0.00 0.00 0.00 0.00 0.00 0.00 0.00 0.00 0.00 0.00 0.00 0.00 0.00 0.00 0.00 0.00 0.00 0.00 0.00 0.00 0.00 0.00 0.00 0.00 0.00 0.00 0.00 0.00 0.00 0.00 0.00 0.00
0.00 0.00 0.00 0.00 0.00 0.00 0.00 0.00 0.00 0.00 0.00 0.00 0.00 0.00 0.00 0.00 0.00 0.00 0.00 0.00 0.00 0.00 0.00 0.00 0.00 0.00 0.00 0.00 0.00 0.00 0.00 0.00 0.00 0.00 0.00 0.00 0.00 0.00 0.00 0.00 0.00 0.00 0.00 0.00 0.00 0.00 0.00 0.00 0.00 0.00 0.00 0.00 0.00 0.00
0.00 0.00 0.00 0.00 0.00 0.00 0.00 0.00 0.00 0.00 0.00 0.00 0.00 0.00 0.00 0.00 0.00 0.00 0.00 0.00 0.00 0.00 0.00 0.00 0.00 0.00 0.00 0.00 0.00 0.00 0.00 0.00 0.00 0.00 0.00 0.00 0.00 0.00 0.00 0.00 0.00 0.00 0.00 0.00 0.00 0.00 0.00 0.00 0.00 0.00 0.00 0.00 0.00 0.00
0.00 0.00 0.00 0.00 0.00 0.00 0.00 0.00 0.00 0.00 0.00 0.00 0.00 0.00 0.00 0.00 0.00 0.00 0.00 0.00 0.00 0.00 0.00 0.00 0.00 0.00 0.00 0.00 0.00 0.00 0.00 0.00 0.00 0.00 0.00 0.00 0.00 0.00 0.00 0.00 0.00 0.00 0.00 0.00 0.00 0.00 0.00 0.00 0.00 0.00 0.00 0.00 0.00 0.00
0.00 0.00 0.00 0.00 0.00 0.00 0.00 0.00 0.00 0.00 0.00 0.00 0.00 0.00 0.00 0.00 0.00 0.00 0.00 0.00 0.00 0.00 0.00 0.00 0.00 0.00 0.00 0.00 0.00 0.00 0.00 0.00 0.00 0.00 0.00 0.00 0.00 0.00 0.00 0.00 0.00 0.00 0.00 0.00 0.00 0.00 0.00 0.00 0.00 0.00 0.00 0.00 0.00 0.00
0.00 0.00 0.00 0.00 0.00 0.00 0.00 0.00 0.00 0.00 0.00 0.00 0.00 0.00 0.01 0.00 0.00 0.00 0.00 0.00 0.00 0.00 0.00 0.00 0.00 0.00 0.00 0.00 0.00 0.00 0.00 0.00 0.00 0.00 0.00 0.00 0.00 0.00 0.00 0.00 0.00 0.00 0.00 0.00 0.00 0.00 0.00 0.00 0.00 0.00 0.00 0.00 0.00 0.00
0.00 0.00 0.00 0.00 0.00 0.00 0.00 0.00 0.00 0.00 0.00 0.00 0.00 0.00 0.00 0.00 0.00 0.00 0.00 0.00 0.00 0.00 0.00 0.00 0.00 0.00 0.00 0.00 0.00 0.00 0.00 0.00 0.00 0.00 0.00 0.00 0.00 0.00 0.00 0.00 0.00 0.00 0.00 0.00 0.00 0.00 0.00 0.00 0.00 0.00 0.00 0.00 0.00 0.00
0.00 0.00 0.00 0.00 0.00 0.00 0.00 0.00 0.00 0.00 0.00 0.00 0.00 0.01 0.01 0.01 0.01 0.01 0.01 0.00 0.00 0.00 0.00 0.00 0.00 0.00 0.00 0.00 0.00 0.00 0.01 0.00 0.00 0.00 0.00 0.00 0.00 0.00 0.00 0.00 0.00 0.00 0.00 0.00 0.00 0.00 0.00 0.00 0.00 0.00 0.00 0.00 0.00 0.00
0.00 0.00 0.00 0.00 0.00 0.00 0.00 0.00 0.00 0.00 0.00 0.00 0.01 0.01 0.01 0.01 0.00 0.00 0.00 0.00 0.00 0.00 0.00 0.00 0.00 0.00 0.00 0.00 0.00 0.00 0.00 0.01 0.01 0.00 0.00 0.00 0.00 0.00 0.00 0.00 0.00 0.00 0.00 0.00 0.00 0.00 0.00 0.00 0.00 0.00 0.00 0.00 0.00 0.00
0.00 0.00 0.00 0.00 0.00 0.00 0.00 0.00 0.00 0.00 0.00 0.00 0.02 0.01 0.00 0.00 0.00 0.00 0.00 0.00 0.00 0.00 0.00 0.00 0.00 0.00 0.00 0.00 0.00 0.00 0.00 0.00 0.00 0.00 0.00 0.00 0.00 0.00 0.00 0.01 0.00 0.00 0.00 0.00 0.00 0.00 0.00 0.00 0.00 0.00 0.00 0.00 0.00 0.00
0.00 0.00 0.00 0.00 0.00 0.00 0.00 0.00 0.00 0.00 0.00 0.00 0.01 0.00 0.00 0.00 0.00 0.00 0.00 0.00 0.00 0.00 0.00 0.00 0.04 0.02 0.01 0.00 0.00 0.00 0.00 0.00 0.00 0.00 0.00 0.00 0.00 0.00 0.00 0.00 0.00 0.00 0.00 0.00 0.00 0.00 0.00 0.00 0.00 0.00 0.00 0.00 0.00 0.00
0.00 0.00 0.00 0.00 0.00 0.00 0.00 0.00 0.00 0.00 0.00 0.01 0.00 0.00 0.00 0.00 0.00 0.00 0.00 0.00 0.00 0.00 0.01 0.00 0.02 0.03 0.02 0.01 0.00 0.00 0.00 0.00 0.00 0.00 0.00 0.00 0.00 0.00 0.00 0.00 0.00 0.00 0.00 0.00 0.00 0.00 0.00 0.00 0.00 0.00 0.00 0.00 0.00 0.00
0.00 0.00 0.00 0.00 0.00 0.00 0.00 0.00 0.00 0.00 0.01 0.00 0.00 0.00 0.00 0.00 0.00 0.00 0.00 0.00 0.00 0.00 0.01 0.02 0.01 0.01 0.02 0.01 0.00 0.00 0.00 0.00 0.00 0.00 0.00 0.00 0.00 0.00 0.00 0.00 0.00 0.00 0.00 0.00 0.00 0.00 0.00 0.00 0.00 0.00 0.00 0.00 0.00 0.00
0.00 0.00 0.00 0.00 0.00 0.00 0.00 0.00 0.00 0.00 0.00 0.00 0.00 0.00 0.00 0.00 0.00 0.00 0.00 0.00 0.00 0.00 0.00 0.00 0.01 0.01 0.03 0.01 0.01 0.00 0.00 0.00 0.00 0.00 0.00 0.00 0.00 0.00 0.00 0.00 0.00 0.00 0.00 0.00 0.00 0.00 0.00 0.00 0.00 0.00 0.00 0.00 0.00 0.00
0.00 0.00 0.00 0.00 0.00 0.00 0.00 0.01 0.00 0.00 0.00 0.00 0.00 0.00 0.00 0.00 0.00 0.00 0.00 0.00 0.00 0.00 0.00 0.00 0.02 0.01 0.01 0.01 0.00 0.00 0.00 0.00 0.00 0.00 0.00 0.00 0.00 0.00 0.00 0.00 0.00 0.00 0.00 0.00 0.00 0.00 0.00 0.00 0.00 0.00 0.00 0.02 0.04 0.02
0.00 0.00 0.00 0.00 0.00 0.00 0.00 0.00 0.01 0.00 0.00 0.00 0.00 0.00 0.00 0.00 0.00 0.00 0.00 0.00 0.00 0.00 0.00 0.00 0.00 0.00 0.00 0.01 0.00 0.00 0.00 0.00 0.00 0.00 0.00 0.00 0.00 0.00 0.00 0.00 0.00 0.00 0.00 0.00 0.00 0.00 0.00 0.00 0.00 0.03 0.07 0.08 0.06 0.02
0.00 0.00 0.00 0.00 0.00 0.00 0.00 0.00 0.00 0.00 0.00 0.00 0.00 0.00 0.00 0.00 0.00 0.00 0.00 0.00 0.00 0.00 0.00 0.00 0.00 0.00 0.00 0.02 0.00 0.00 0.00 0.00 0.00 0.00 0.00 0.00 0.00 0.00 0.00 0.00 0.00 0.00 0.00 0.00 0.00 0.00 0.00 0.00 0.00 0.01 0.06 0.13 0.13 0.06
0.00 0.00 0.00 0.00 0.00 0.00 0.00 0.00 0.00 0.00 0.00 0.00 0.00 0.00 0.00 0.00 0.00 0.00 0.00 0.00 0.00 0.00 0.00 0.00 0.00 0.00 0.00 0.00 0.00 0.00 0.00 0.00 0.00 0.00 0.00 0.00 0.00 0.00 0.00 0.00 0.00 0.00 0.00 0.00 0.00 0.02 0.01 0.00 0.00 0.00 0.02 0.03 0.08 0.09
0.00 0.00 0.00 0.01 0.00 0.00 0.00 0.00 0.00 0.00 0.00 0.00 0.00 0.00 0.00 0.00 0.00 0.00 0.00 0.00 0.00 0.00 0.00 0.00 0.00 0.00 0.00 0.00 0.00 0.00 0.00 0.00 0.00 0.00 0.00 0.00 0.00 0.00 0.00 0.00 0.00 0.00 0.00 0.00 0.00 0.00 0.00 0.00 0.00 0.00 0.00 0.02 0.04 0.06
0.00 0.00 0.00 0.00 0.00 0.00 0.00 0.00 0.00 0.00 0.00 0.00 0.00 0.00 0.00 0.00 0.00 0.00 0.00 0.00 0.00 0.00 0.00 0.00 0.00 0.00 0.00 0.00 0.00 0.00 0.00 0.00 0.00 0.00 0.00 0.00 0.00 0.00 0.00 0.00 0.00 0.00 0.00 0.00 0.00 0.00 0.00 0.00 0.00 0.00 0.00 0.00 0.03 0.04
0.00 0.00 0.00 0.00 0.00 0.00 0.00 0.00 0.00 0.00 0.00 0.00 0.00 0.00 0.00 0.00 0.00 0.00 0.00 0.00 0.00 0.00 0.00 0.00 0.00 0.00 0.00 0.00 0.00 0.00 0.00 0.00 0.00 0.00 0.00 0.00 0.00 0.00 0.00 0.00 0.00 0.00 0.00 0.00 0.00 0.00 0.00 0.00 0.00 0.00 0.00 0.00 0.02 0.02
0.00 0.00 0.00 0.00 0.00 0.00 0.00 0.00 0.00 0.00 0.00 0.00 0.00 0.00 0.00 0.00 0.00 0.00 0.00 0.00 0.00 0.00 0.00 0.00 0.00 0.00 0.00 0.00 0.00 0.00 0.00 0.00 0.00 0.00 0.00 0.00 0.00 0.00 0.00 0.00 0.00 0.00 0.00 0.00 0.00 0.00 0.01 0.01 0.00 0.00 0.00 0.00 0.00 0.00
0.00 0.00 0.00 0.00 0.00 0.00 0.00 0.00 0.00 0.00 0.00 0.00 0.00 0.00 0.00 0.00 0.00 0.00 0.00 0.00 0.00 0.00 0.00 0.00 0.00 0.00 0.00 0.00 0.00 0.00 0.00 0.00 0.00 0.00 0.00 0.00 0.00 0.00 0.00 0.00 0.00 0.00 0.00 0.00 0.00 0.00 0.00 0.00 0.00 0.00 0.00 0.00 0.00 0.00
0.00 0.00 0.00 0.00 0.00 0.00 0.00 0.00 0.00 0.00 0.00 0.00 0.00 0.00 0.00 0.00 0.00 0.00 0.00 0.00 0.00 0.00 0.00 0.00 0.00 0.00 0.00 0.00 0.00 0.00 0.00 0.00 0.00 0.00 0.00 0.00 0.00 0.00 0.00 0.00 0.00 0.00 0.00 0.00 0.00 0.00 0.00 0.00 0.00 0.00 0.00 0.00 0.00 0.00
0.00 0.00 0.00 0.00 0.00 0.00 0.00 0.00 0.00 0.00 0.00 0.00 0.00 0.00 0.00 0.00 0.00 0.00 0.00 0.00 0.00 0.00 0.00 0.00 0.00 0.00 0.00 0.00 0.00 0.00 0.00 0.00 0.00 0.00 0.00 0.00 0.00 0.00 0.00 0.00 0.00 0.00 0.00 0.00 0.00 0.00 0.00 0.00 0.00 0.00 0.00 0.00 0.00 0.00
0.00 0.00 0.00 0.00 0.00 0.00 0.00 0.00 0.00 0.00 0.00 0.00 0.00 0.00 0.00 0.00 0.00 0.00 0.00 0.00 0.00 0.00 0.00 0.00 0.00 0.00 0.00 0.00 0.00 0.00 0.00 0.00 0.00 0.00 0.00 0.00 0.00 0.00 0.00 0.00 0.00 0.00 0.00 0.00 0.00 0.00 0.00 0.00 0.00 0.00 0.00 0.00 0.00 0.00
0.00 0.00 0.00 0.00 0.00 0.00 0.00 0.00 0.00 0.00 0.00 0.00 0.00 0.00 0.00 0.00 0.00 0.00 0.00 0.00 0.00 0.00 0.00 0.00 0.00 0.00 0.00 0.00 0.00 0.00 0.00 0.00 0.00 0.00 0.00 0.00 0.00 0.00 0.00 0.00 0.00 0.00 0.00 0.01 0.05 0.01 0.00 0.00 0.00 0.00 0.00 0.00 0.00 0.00
0.00 0.00 0.00 0.00 0.00 0.00 0.00 0.00 0.00 0.00 0.00 0.00 0.00 0.00 0.00 0.00 0.00 0.00 0.00 0.00 0.00 0.00 0.00 0.00 0.00 0.00 0.00 0.00 0.00 0.00 0.00 0.00 0.00 0.00 0.00 0.00 0.00 0.00 0.00 0.00 0.00 0.00 0.00 0.00 0.00 0.00 0.00 0.00 0.00 0.00 0.00 0.00 0.00 0.01
MSLP
1016.65 1016.51 1016.35 1016.11 1015.89 1015.71 1015.55 1015.41 1015.27 1015.18 1015.10 1015.04 1014.84 1014.83 1015.07 1015.29 1015.48 1015.67 1014.80 1014.52 1013.87 1011.75 1009.73 1009.16 1008.66 1007.83 1007.07 1006.69 1005.44 1004.99 1004.66 1003.83 1003.00 1001.97 1000.40 999.23 999.13 998.37 999.14 998.79 998.74 998.64 998.19 997.63 997.78 997.44 997.36 997.95 998.59 998.37 998.86 998.73 999.01 999.18
1016.36 1016.26 1016.16 1016.00 1015.77 1015.57 1015.37 1015.15 1014.96 1014.78 1014.71 1014.69 1014.57 1014.54 1014.76 1015.02 1015.24 1015.55 1015.15 1014.59 1014.35 1013.87 1010.53 1009.81 1009.17 1008.60 1008.15 1007.36 1007.10 1006.00 1005.48 1005.00 1004.16 1003.17 1002.08 1000.79 1000.21 999.99 999.44 998.78 999.86 999.97 999.13 999.02 998.05 997.79 998.53 998.81 998.74 998.95 999.30 999.50 999.68 999.77
1016.04 1015.92 1015.86 1015.71 1015.51 1015.31 1015.09 1014.90 1014.72 1014.50 1014.31 1014.24 1014.25 1014.19 1014.32 1014.66 1014.96 1015.21 1015.10 1015.06 1014.91 1013.59 1010.40 1008.76 1007.19 1006.90 1007.42 1007.57 1007.57 1006.81 1005.55 1005.42 1005.20 1005.61 1004.03 1002.47 1001.58 1001.21 999.97 999.88 999.80 1000.60 1000.97 1000.01 999.75 998.62 998.58 999.14 999.64 999.77 999.93 1000.06 1000.20 1000.03
1015.70 1015.64 1015.56 1015.45 1015.22 1014.99 1014.83 1014.56 1014.41 1014.26 1014.02 1013.87 1013.82 1013.82 1013.93 1014.29 1014.63 1014.99 1015.05 1014.98 1014.86 1013.84 1011.10 1007.15 1006.76 1006.58 1006.57 1006.47 1006.90 1006.77 1006.16 1006.35 1006.08 1005.63 1004.24 1002.96 1002.14 1002.47 1001.12 1001.47 1000.96 1001.48 1001.49 1000.56 999.92 999.55 999.50 999.73 1000.31 1000.35 1000.38 1000.49 1000.43 1000.19
1015.29 1015.25 1015.15 1015.03 1014.89 1014.66 1014.48 1014.27 1014.05 1013.95 1013.69 1013.48 1013.32 1013.38 1013.61 1013.94 1014.39 1014.75 1014.64 1014.71 1014.54 1014.45 1012.08 1008.75 1007.01 1005.50 1005.80 1005.97 1006.20 1006.49 1006.54 1006.39 1006.02 1005.20 1004.36 1003.27 1002.79 1003.15 1002.54 1002.23 1001.03 1001.21 1000.66 1000.47 999.63 1000.33 1000.39 1000.14 1000.33 1000.63 1000.68 1000.65 1000.68 1000.55
1014.94 1014.92 1014.74 1014.63 1014.49 1014.24 1014.00 1013.91 1013.68 1013.50 1013.33 1013.10 1012.89 1012.95 1013.22 1013.65 1014.28 1014.53 1014.39 1014.07 1014.22 1014.32 1013.40 1009.44 1006.05 1005.47 1005.45 1005.69 1005.71 1005.84 1006.01 1006.11 1006.01 1005.10 1004.19 1003.35 1003.49 1003.44 1001.95 1001.15 1000.90 1000.59 1000.67 1000.64 1000.60 1000.62 1000.91 1001.00 1000.81 1000.67 1000.82 1000.85 1000.97 1000.72
1014.52 1014.47 1014.38 1014.13 1013.88 1013.61 1013.39 1013.25 1013.19 1013.16 1013.02 1012.78 1012.60 1012.70 1012.98 1013.44 1013.86 1013.83 1013.59 1013.52 1013.85 1014.28 1013.18 1010.00 1006.00 1004.96 1005.26 1005.26 1005.25 1005.47 1005.69 1005.67 1005.57 1004.86 1003.85 1003.28 1003.15 1003.82 1002.20 1001.10 1000.82 1000.71 1000.63 1000.58 1000.65 1000.68 1000.65 1000.32 1000.09 1000.06 1000.58 1000.73 1001.27 1000.85
1014.04 1014.06 1013.86 1013.62 1013.31 1012.99 1012.82 1012.79 1012.80 1012.74 1012.71 1012.59 1012.45 1012.56 1012.97 1013.53 1013.91 1013.72 1013.42 1013.99 1014.08 1013.91 1012.30 1009.49 1005.92 1004.67 1004.73 1004.05 1004.47 1004.97 1005.03 1005.31 1004.93 1003.90 1003.13 1002.66 1002.74 1002.88 1001.38 1000.74 1000.75 1000.70 1000.47 1000.35 1000.30 1000.30 1000.03 999.92 1000.01 1000.04 1000.42 1000.55 1000.52 1000.65
1013.61 1013.54 1013.43 1013.23 1012.95 1012.61 1012.41 1012.37 1012.42 1012.48 1012.47 1012.49 1012.57 1012.83 1013.38 1013.65 1013.54 1013.01 1013.11 1013.75 1013.91 1013.96 1011.63 1008.80 1005.86 1003.21 1003.97 1003.25 1003.52 1004.35 1004.24 1003.88 1003.37 1002.97 1002.06 1001.77 1001.34 1000.91 1000.34 1000.46 1000.31 1000.25 1000.26 1000.29 1000.25 1000.14 999.93 999.65 999.57 999.83 1000.06 1000.08 1000.07 1000.12
1013.09 1013.13 1013.11 1012.92 1012.67 1012.33 1012.08 1012.06 1012.10 1012.18 1012.32 1012.51 1012.79 1012.96 1012.71 1012.60 1012.75 1013.16 1013.49 1013.77 1013.61 1012.72 1011.62 1008.52 1006.02 1004.25 1003.58 1002.83 1002.87 1002.88 1002.99 1001.80 1001.78 1001.19 1001.02 1000.92 999.99 999.75 999.94 1000.06 1000.67 1000.83 1000.77 1000.64 1000.27 999.84 999.48 999.40 999.22 999.20 999.25 999.44 999.54 999.88
1012.55 1012.72 1012.75 1012.60 1012.35 1012.09 1011.76 1011.77 1011.88 1012.10 1012.32 1012.50 1012.29 1012.23 1012.26 1012.36 1012.67 1012.50 1012.21 1012.08 1011.86 1010.80 1009.07 1006.89 1005.41 1004.21 1003.61 1002.73 1001.76 1001.93 1000.78 1000.47 999.93 999.39 999.90 999.00 998.86 998.91 1000.24 1000.69 1000.96 1000.94 1000.77 1000.42 1000.09 999.68 999.38 998.84 998.71 998.75 998.89 999.21 999.51 999.96
1012.10 1012.21 1012.27 1012.15 1012.05 1011.86 1011.69 1011.55 1011.64 1011.92 1011.80 1011.86 1011.83 1011.90 1012.16 1012.08 1011.73 1011.33 1010.64 1010.28 1009.57 1007.87 1005.73 1004.82 1004.37 1004.42 1003.61 1003.55 1002.45 1001.75 1000.65 1000.01 998.80 999.19 999.07 998.31 998.42 999.77 1000.31 1000.55 1000.66 1000.65 1000.35 999.74 999.24 999.13 999.02 998.85 998.59 998.60 998.66 998.96 999.32 1000.04
1011.69 1011.94 1011.91 1011.81 1011.62 1011.46 1011.48 1011.23 1011.27 1011.42 1011.72 1011.79 1011.57 1011.33 1011.11 1010.84 1010.26 1009.19 1008.18 1007.56 1006.73 1005.29 1004.41 1003.98 1003.80 1003.56 1003.91 1003.43 1002.17 1001.26 1000.17 998.89 998.83 998.31 997.82 997.67 999.09 999.95 1000.40 1000.61 1000.50 1000.33 1000.07 999.67 999.10 998.72 998.65 998.48 998.46 998.47 998.60 999.10 999.74 1000.40
1011.31 1011.52 1011.59 1011.54 1011.44 1011.20 1010.93 1010.92 1010.83 1011.25 1011.46 1011.25 1010.86 1010.27 1009.78 1008.65 1007.70 1006.58 1005.86 1005.15 1004.53 1004.29 1003.67 1003.12 1002.76 1002.79 1002.39 1002.17 1000.92 1000.02 998.88 998.57 997.71 997.15 996.94 997.50 999.35 1000.05 1000.47 1000.65 1000.50 1000.20 1000.02 999.77 999.40 998.87 998.46 998.34 998.35 998.59 998.82 999.22 999.82 1000.46
1011.04 1011.28 1011.28 1011.04 1011.08 1011.02 1010.88 1010.72 1010.79 1011.02 1010.93 1010.58 1009.90 1008.76 1007.68 1006.36 1006.03 1005.45 1005.20 1004.90 1004.37 1004.26 1003.83 1003.26 1002.80 1002.40 1001.81 1000.99 999.92 998.91 998.34 997.26 996.51 996.47 996.64 998.22 999.80 1000.32 1000.55 1000.71 1000.58 1000.28 1000.02 999.78 999.52 999.13 998.67 998.35 998.34 998.56 998.89 999.34 999.80 1000.40
1010.82 1011.04 1010.89 1010.77 1010.71 1010.79 1010.81 1010.84 1010.85 1010.93 1010.36 1009.79 1008.95 1007.75 1006.74 1006.17 1005.13 1005.24 1005.49 1005.37 1005.34 1005.05 1004.56 1003.76 1002.75 1002.11 1000.87 999.58 998.42 997.55 996.70 996.01 996.16 997.14 998.01 999.39 1000.03 1000.49 1000.69 1000.74 1000.68 1000.48 1000.14 999.77 999.59 999.36 998.93 998.65 998.40 998.51 998.99 999.37 999.72 1000.29
1010.60 1010.13 1010.42 1010.51 1010.57 1010.54 1010.66 1010.77 1010.65 1010.31 1009.67 1008.58 1007.57 1006.76 1005.81 1005.65 1005.19 1005.77 1006.28 1006.42 1006.38 1005.90 1005.18 1004.51 1003.39 1001.74 1000.03 998.42 997.42 996.69 996.25 996.15 997.18 998.03 998.85 999.69 1000.09 1000.53 1000.79 1000.84 1000.74 1000.58 1000.26 1000.02 999.74 999.54 999.27 999.08 998.81 998.79 998.89 999.12 999.52 1000.21
1009.75 1009.76 1010.23 1010.36 1010.26 1010.33 1010.23 1010.38 1010.02 1009.25 1008.28 1007.45 1006.85 1005.56 1005.07 1004.89 1005.40 1006.05 1006.45 1006.81 1006.87 1006.48 1005.84 1005.07 1004.24 1002.18 1000.46 998.07 996.92 996.92 997.14 997.47 997.92 998.55 999.21 1000.03 1000.40 1000.68 1000.74 1000.75 1000.70 1000.57 1000.25 1000.04 999.79 999.51 999.27 999.08 998.89 998.67 998.92 999.25 999.62 1000.13
1009.27 1009.57 1010.11 1010.24 1010.21 1010.06 1009.78 1009.57 1009.39 1008.33 1007.43 1006.75 1006.19 1005.63 1005.08 1005.00 1005.51 1005.90 1006.40 1006.66 1007.02 1006.83 1006.39 1005.44 1004.18 1002.74 1000.98 998.54 997.68 997.17 997.42 997.75 998.28 998.91 999.69 1000.16 1000.40 1000.53 1000.62 1000.52 1000.32 1000.24 1000.13 1000.00 999.74 999.22 999.01 999.16 999.03 998.99 999.16 999.72 999.69 1000.02
1009.54 1009.71 1009.87 1010.01 1010.11 1009.81 1009.44 1008.96 1008.68 1007.99 1006.99 1006.23 1006.01 1005.40 1005.09 1004.59 1004.91 1005.49 1005.99 1006.13 1006.48 1006.36 1005.96 1004.82 1003.22 1001.98 1001.46 1000.39 998.62 997.73 997.67 997.99 998.53 998.99 999.47 999.83 1000.00 1000.23 1000.21 1000.15 999.91 999.92 999.56 999.66 999.57 999.91 999.39 999.44 999.63 999.94 1000.06 1000.34 1000.36 1000.09
1009.38 1008.97 1009.43 1009.64 1009.52 1009.72 1009.37 1008.62 1008.04 1007.46 1006.75 1006.01 1004.66 1004.32 1004.29 1004.63 1004.47 1004.26 1004.40 1005.03 1005.41 1004.68 1004.27 1003.63 1002.61 1001.90 1001.12 1001.04 999.53 998.61 998.66 998.49 998.32 998.44 999.02 999.44 999.75 999.77 999.68 999.64 999.65 999.40 999.27 999.26 999.20 999.38 999.84 999.38 999.74 1000.42 1000.87 1000.90 1000.93 1000.27
1008.36 1008.87 1008.73 1008.94 1008.80 1009.04 1008.80 1008.13 1007.76 1007.13 1006.80 1005.85 1005.30 1004.47 1003.71 1003.34 1002.94 1002.70 1002.59 1002.62 1002.43 1001.83 1001.60 1001.51 1001.43 1001.54 1001.16 1000.60 999.42 999.38 999.27 999.34 999.22 999.43 999.80 999.86 999.35 999.23 999.13 999.06 999.18 999.03 999.04 999.25 999.32 999.17 999.19 999.47 999.79 1000.60 1000.94 1001.15 1001.11 1000.45
1008.77 1008.72 1008.23 1008.25 1008.25 1007.99 1007.22 1007.05 1006.91 1006.38 1005.84 1005.08 1004.45 1003.85 1003.19 1002.47 1001.83 1001.61 1001.02 1000.31 999.99 1000.04 999.90 999.99 1000.20 1000.48 1000.58 1000.16 999.91 999.69 999.63 999.33 999.06 999.03 998.97 998.97 999.04 999.18 999.09 999.09 999.09 999.05 998.95 998.94 999.27 999.35 999.42 1000.10 1000.15 1000.65 1000.96 1001.25 1001.07 1001.10
1008.59 1008.03 1007.51 1007.11 1006.96 1006.55 1006.02 1005.56 1005.38 1004.98 1004.31 1003.55 1002.76 1001.96 1001.16 1000.77 1000.82 1000.44 999.29 998.86 998.60 998.99 998.77 998.87 999.01 999.25 999.59 999.79 999.28 998.88 998.93 999.10 998.87 998.85 998.83 998.79 998.64 998.61 998.59 998.57 998.64 998.74 998.64 998.76 999.11 999.04 999.64 999.97 1000.14 1000.16 1000.72 1000.95 1000.90 1001.19
1008.07 1007.53 1007.17 1006.41 1005.87 1005.60 1004.79 1004.05 1003.65 1003.36 1002.69 1002.18 1001.72 1000.98 1000.37 1000.37 999.72 998.82 997.97 997.48 997.62 997.77 997.76 997.67 997.91 997.86 997.61 997.77 998.02 998.01 998.28 998.42 998.26 998.18 998.24 998.31 998.41 998.35 998.01 998.14 998.21 998.19 998.10 998.26 998.48 998.52 999.32 999.82 1000.22 1000.30 1000.32 1000.61 1000.59 1000.67
1007.00 1006.12 1005.98 1004.68 1004.26 1004.21 1003.42 1002.76 1002.37 1001.95 1001.69 1001.42 1001.03 1000.58 1000.23 999.86 999.05 997.72 996.79 996.62 996.71 997.10 997.14 997.13 997.07 997.12 997.12 997.27 997.32 997.33 997.42 998.11 998.29 997.93 997.76 997.70 997.86 997.82 997.55 997.44 997.36 997.33 997.43 997.55 997.89 998.02 998.64 999.10 999.66 1000.03 1000.10 1000.33 1000.60 1000.66
1005.86 1004.43 1004.26 1004.12 1003.50 1003.31 1002.88 1002.43 1002.07 1001.75 1001.12 1000.65 1000.14 1000.05 999.66 998.95 997.62 996.71 996.93 996.95 996.91 997.10 997.21 997.22 997.05 996.93 997.10 997.53 997.78 997.83 998.08 998.31 998.22 997.67 997.44 997.68 997.63 997.61 997.61 997.43 997.28 997.09 997.38 997.58 997.72 997.73 997.97 998.44 999.15 999.59 999.97 1000.31 1000.42 1000.08
1004.28 1003.69 1003.35 1003.08 1003.25 1002.80 1002.23 1001.69 1001.19 1000.57 1000.04 999.79 999.79 998.96 998.35 997.51 996.72 996.62 996.70 996.95 997.21 997.49 997.52 997.61 997.46 997.40 997.53 997.68 997.71 997.90 997.85 997.82 997.79 997.76 997.67 997.54 997.43 997.24 997.25 997.37 997.40 997.62 997.76 997.72 997.80 997.83 997.85 997.85 998.14 998.86 999.36 999.91 1000.41 1000.51
1003.90 1003.61 1003.33 1002.85 1002.67 1002.20 1001.64 1001.06 1000.06 999.19 998.84 998.65 998.37 997.83 997.54 997.38 997.16 996.92 997.12 997.13 997.34 997.49 997.66 997.66 997.75 997.86 997.69 997.68 997.66 997.59 997.54 997.30 996.82 996.73 996.70 996.28 995.96 996.01 996.30 996.77 996.87 996.91 997.29 997.43 997.92 998.05 997.91 997.87 998.01 998.28 998.99 999.66 1000.16 1000.34
1002.73 1002.83 1002.70 1002.17 1002.06 1001.20 1000.18 999.89 999.15 998.70 998.45 998.36 998.21 997.81 997.63 997.25 997.04 996.99 996.97 997.14 997.18 997.11 997.17 997.17 997.19 997.30 997.32 997.33 997.22 997.13 997.14 997.06 996.95 996.66 996.28 995.94 995.67 995.46 995.91 996.18 996.26 996.50 996.63 996.78 997.16 997.84 998.19 998.18 998.36 998.49 998.79 999.52 1000.03 1000.35
1002.04 1002.24 1002.14 1001.76 1000.83 1000.13 999.81 999.54 999.06 998.86 998.68 998.43 998.16 997.80 997.18 996.96 996.49 996.22 996.41 996.59 996.67 996.72 996.62 996.50 996.50 996.73 996.91 997.07 996.98 996.92 996.70 996.55 996.61 997.03 997.17 996.87 996.70 996.49 996.37 996.16 996.12 996.21 996.49 996.63 996.77 997.13 997.42 997.55 997.56 997.94 998.50 999.12 999.80 1000.05
1001.70 1001.84 1001.96 1001.46 1000.74 1000.45 1000.36 999.79 999.35 998.85 998.50 998.25 997.82 997.58 997.06 996.59 996.03 995.59 995.44 995.52 995.44 995.39 995.35 995.49 995.37 995.46 995.76 995.96 996.38 996.50 996.65 996.37 996.08 996.55 997.02 997.20 997.07 996.69 996.37 996.06 995.91 995.99 996.42 996.60 996.89 996.68 997.09 997.04 997.24 997.51 997.89 998.53 999.17 999.62
1001.74 1001.88 1001.97 1001.95 1001.47 1000.70 999.98 1000.03 999.57 998.97 998.46 997.86 997.49 997.31 997.16 997.05 996.17 995.04 994.27 994.13 994.08 994.00 994.17 994.21 994.39 994.70 994.99 995.24 995.31 995.58 996.14 996.16 996.20 996.74 997.44 997.87 998.26 998.44 997.92 996.75 995.98 996.25 996.67 996.70 996.51 996.45 996.67 996.78 996.92 997.27 997.57 997.87 998.34 998.96
Thickness
5615 5612 5610 5608 5606 5603 5601 5598 5596 5592 5589 5585 5584 5584 5583 5582 5584 5587 5601 5608 5617 5637 5656 5663 5669 5672 5681 5683 5687 5701 5704 5713 5722 5721 5740 5752 5749 5760 5754 5764 5764 5762 5765 5772 5773 5765 5761 5809 5799 5789 5800 5814 5812 5812
5612 5609 5606 5604 5602 5599 5597 5595 5593 5590 5586 5582 5580 5580 5579 5579 5579 5582 5592 5603 5610 5614 5646 5657 5665 5673 5676 5682 5680 5691 5691 5695 5708 5714 5725 5738 5738 5746 5752 5749 5758 5743 5768 5761 5775 5780 5791 5797 5798 5807 5806 5801 5803 5805
5608 5605 5602 5599 5598 5596 5595 5592 5589 5587 5584 5581 5578 5577 5577 5577 5577 5581 5589 5595 5601 5613 5644 5659 5671 5682 5683 5681 5685 5676 5693 5697 5698 5701 5709 5721 5717 5734 5736 5743 5749 5746 5749 5752 5754 5781 5783 5785 5788 5793 5795 5794 5797 5803
5604 5601 5598 5595 5594 5592 5591 5589 5587 5584 5581 5578 5577 5576 5576 5575 5575 5578 5583 5590 5597 5608 5628 5665 5676 5676 5686 5688 5684 5686 5689 5689 5692 5695 5701 5710 5713 5722 5728 5726 5731 5733 5734 5741 5749 5763 5769 5769 5771 5777 5781 5786 5789 5797
5601 5597 5595 5592 5590 5589 5587 5586 5584 5581 5579 5577 5577 5576 5574 5573 5571 5573 5581 5587 5594 5599 5618 5642 5666 5684 5685 5685 5682 5682 5680 5680 5681 5685 5691 5698 5712 5707 5713 5715 5724 5734 5735 5731 5740 5746 5749 5755 5765 5769 5769 5773 5778 5781
5596 5593 5591 5588 5587 5586 5585 5583 5581 5579 5577 5576 5577 5576 5574 5572 5569 5572 5582 5589 5591 5595 5601 5633 5671 5674 5680 5679 5679 5679 5679 5678 5678 5683 5691 5704 5709 5703 5704 5710 5730 5740 5742 5743 5735 5746 5743 5747 5755 5761 5758 5763 5769 5773
5590 5588 5586 5585 5584 5584 5583 5581 5580 5576 5575 5574 5575 5574 5573 5571 5569 5576 5588 5590 5589 5590 5599 5620 5658 5675 5675 5675 5676 5675 5677 5676 5676 5680 5688 5696 5701 5693 5701 5702 5725 5729 5732 5733 5737 5737 5732 5743 5745 5757 5754 5756 5754 5763
5585 5582 5581 5581 5581 5581 5581 5578 5576 5575 5573 5571 5571 5571 5568 5565 5565 5570 5578 5577 5581 5587 5602 5622 5651 5663 5674 5673 5668 5674 5669 5669 5673 5682 5693 5692 5695 5693 5694 5716 5718 5719 5724 5726 5730 5736 5739 5745 5747 5748 5749 5749 5750 5752
5579 5577 5576 5575 5575 5577 5577 5575 5573 5571 5569 5567 5565 5564 5561 5561 5564 5571 5571 5572 5575 5580 5602 5626 5643 5663 5672 5676 5677 5668 5671 5663 5684 5677 5688 5695 5694 5689 5707 5709 5714 5718 5718 5721 5727 5729 5733 5734 5736 5737 5739 5743 5745 5750
5574 5571 5570 5569 5569 5570 5571 5570 5568 5565 5563 5560 5557 5559 5566 5565 5563 5562 5563 5565 5568 5578 5590 5618 5644 5648 5665 5673 5669 5671 5671 5677 5669 5686 5698 5688 5699 5715 5717 5718 5711 5710 5713 5717 5714 5716 5724 5724 5730 5734 5738 5744 5748 5748
5569 5565 5563 5563 5563 5563 5564 5562 5560 5558 5555 5554 5557 5560 5559 5558 5558 5562 5567 5570 5572 5583 5606 5628 5639 5645 5662 5660 5672 5675 5680 5685 5676 5694 5688 5699 5700 5714 5709 5706 5707 5708 5710 5714 5719 5723 5727 5732 5733 5734 5736 5739 5740 5741
5563 5560 5558 5558 5556 5555 5554 5554 5552 5551 5552 5552 5552 5550 5550 5554 5559 5563 5568 5571 5576 5596 5628 5633 5639 5641 5653 5655 5659 5668 5670 5679 5676 5696 5689 5691 5711 5705 5705 5704 5706 5707 5710 5716 5722 5721 5725 5728 5733 5733 5735 5735 5736 5735
5556 5552 5551 5551 5551 5549 5546 5547 5546 5545 5542 5542 5545 5549 5553 5555 5558 5566 5575 5580 5592 5617 5627 5631 5635 5642 5641 5648 5655 5661 5659 5672 5691 5684 5689 5707 5703 5703 5701 5702 5705 5708 5710 5713 5716 5722 5725 5728 5732 5732 5731 5732 5730 5726
5548 5545 5543 5543 5542 5543 5544 5541 5541 5538 5536 5540 5544 5547 5551 5559 5572 5586 5595 5603 5613 5618 5626 5636 5641 5639 5649 5645 5660 5656 5677 5679 5674 5679 5690 5708 5697 5697 5698 5700 5702 5704 5707 5708 5712 5718 5722 5724 5727 5728 5730 5728 5724 5720
5538 5535 5535 5536 5536 5535 5535 5535 5533 5530 5532 5536 5542 5548 5559 5582 5586 5594 5599 5601 5609 5614 5620 5627 5635 5641 5642 5646 5661 5668 5663 5667 5685 5687 5705 5701 5689 5689 5692 5694 5697 5700 5704 5706 5709 5713 5718 5722 5723 5723 5725 5723 5722 5719
5528 5527 5528 5529 5529 5527 5526 5525 5524 5521 5524 5530 5537 5549 5565 5570 5585 5587 5586 5589 5595 5600 5608 5619 5625 5626 5639 5653 5658 5662 5671 5677 5689 5691 5694 5685 5681 5682 5684 5688 5691 5695 5699 5704 5706 5709 5715 5717 5719 5720 5721 5719 5719 5714
5518 5524 5521 5521 5520 5519 5516 5515 5514 5516 5521 5532 5544 5555 5566 5567 5575 5572 5568 5572 5576 5584 5591 5598 5606 5621 5650 5653 5659 5676 5675 5687 5686 5683 5684 5678 5676 5676 5677 5680 5684 5688 5692 5697 5701 5704 5707 5711 5716 5716 5713 5717 5718 5713
5515 5514 5511 5510 5510 5509 5509 5507 5509 5516 5525 5536 5541 5557 5564 5569 5564 5560 5559 5560 5565 5570 5580 5590 5595 5614 5625 5648 5661 5669 5674 5677 5677 5674 5673 5668 5669 5669 5671 5673 5677 5680 5685 5690 5695 5699 5702 5705 5707 5711 5713 5713 5713 5708
5507 5504 5500 5499 5499 5500 5504 5505 5503 5515 5525 5534 5540 5546 5552 5556 5554 5554 5550 5551 5552 5559 5565 5576 5588 5600 5622 5652 5657 5664 5665 5665 5662 5664 5662 5662 5664 5665 5666 5670 5673 5676 5680 5684 5689 5696 5700 5700 5703 5706 5708 5704 5705 5705
5493 5492 5490 5489 5488 5491 5496 5500 5500 5506 5519 5529 5530 5535 5541 5550 5550 5546 5543 5545 5547 5551 5558 5571 5590 5606 5610 5624 5647 5657 5661 5662 5658 5655 5655 5658 5661 5660 5662 5664 5669 5672 5679 5681 5684 5675 5691 5691 5693 5691 5691 5690 5692 5697
5483 5486 5482 5480 5482 5479 5482 5489 5497 5503 5510 5520 5536 5538 5539 5536 5539 5547 5550 5546 5543 5554 5562 5574 5587 5598 5610 5613 5634 5646 5646 5651 5654 5657 5655 5653 5655 5657 5660 5664 5666 5670 5673 5676 5678 5679 5676 5684 5683 5678 5673 5676 5679 5690
5482 5475 5478 5475 5477 5474 5476 5483 5487 5493 5497 5507 5511 5523 5531 5536 5543 5549 5556 5556 5561 5574 5580 5585 5587 5590 5599 5608 5624 5628 5633 5636 5641 5641 5631 5640 5650 5654 5658 5662 5662 5664 5668 5670 5672 5676 5679 5679 5676 5670 5668 5665 5668 5681
5467 5468 5474 5473 5471 5472 5484 5486 5485 5490 5494 5499 5511 5516 5522 5531 5542 5548 5551 5567 5575 5579 5583 5588 5591 5593 5596 5606 5613 5618 5623 5628 5634 5637 5642 5645 5649 5651 5654 5656 5659 5659 5661 5666 5668 5670 5671 5663 5665 5663 5662 5661 5667 5670
5459 5467 5472 5478 5480 5482 5491 5493 5497 5498 5505 5510 5516 5522 5531 5536 5539 5542 5556 5566 5576 5574 5582 5587 5594 5595 5598 5597 5608 5619 5623 5626 5630 5633 5638 5640 5643 5647 5652 5655 5658 5659 5662 5664 5664 5668 5664 5662 5660 5663 5661 5662 5666 5665
5457 5462 5466 5460 5483 5482 5491 5501 5505 5506 5509 5515 5515 5519 5524 5527 5533 5546 5556 5567 5571 5575 5581 5589 5593 5601 5608 5611 5614 5616 5619 5621 5624 5629 5636 5639 5640 5644 5650 5652 5656 5659 5664 5662 5662 5666 5659 5657 5653 5652 5657 5660 5663 5665
5451 5470 5462 5486 5492 5489 5501 5506 5508 5511 5512 5511 5513 5516 5517 5519 5526 5542 5557 5565 5571 5572 5577 5584 5591 5596 5602 5607 5609 5612 5615 5616 5619 5624 5631 5638 5639 5641 5646 5649 5653 5658 5666 5667 5663 5664 5662 5660 5655 5651 5652 5655 5652 5659
5453 5481 5483 5484 5492 5493 5496 5501 5503 5503 5506 5509 5515 5513 5515 5516 5530 5546 5547 5555 5561 5566 5572 5578 5585 5590 5594 5594 5597 5601 5605 5607 5612 5621 5630 5634 5638 5642 5643 5645 5649 5658 5663 5663 5663 5664 5663 5662 5655 5653 5653 5652 5655 5662
5478 5483 5481 5488 5482 5489 5492 5498 5501 5504 5509 5513 5511 5515 5520 5528 5536 5541 5543 5548 5552 5555 5561 5566 5573 5579 5583 5586 5590 5592 5597 5604 5609 5615 5622 5628 5633 5639 5643 5646 5650 5642 5654 5658 5659 5660 5661 5664 5663 5657 5654 5652 5650 5653
5470 5475 5478 5476 5481 5485 5488 5492 5503 5511 5515 5517 5518 5524 5528 5530 5532 5535 5536 5539 5543 5546 5548 5554 5559 5565 5572 5577 5581 5587 5592 5598 5606 5611 5615 5623 5631 5637 5644 5644 5647 5651 5652 5654 5642 5648 5657 5660 5661 5661 5656 5651 5649 5651
5483 5483 5480 5486 5476 5484 5500 5503 5508 5513 5515 5515 5516 5520 5522 5525 5528 5531 5533 5533 5536 5540 5544 5550 5555 5559 5562 5567 5572 5579 5587 5594 5600 5607 5613 5619 5627 5637 5639 5640 5643 5646 5650 5654 5654 5650 5643 5652 5652 5655 5653 5649 5645 5643
5492 5487 5485 5488 5495 5501 5502 5504 5506 5507 5506 5507 5511 5514 5518 5518 5523 5528 5529 5531 5534 5538 5542 5547 5552 5555 5557 5559 5565 5571 5578 5589 5595 5598 5603 5611 5617 5623 5628 5634 5638 5642 5644 5647 5651 5650 5650 5651 5654 5652 5649 5645 5640 5642
5492 5486 5480 5480 5487 5489 5487 5491 5494 5496 5497 5499 5503 5507 5512 5514 5517 5523 5529 5530 5534 5538 5544 5547 5552 5556 5560 5564 5565 5570 5572 5583 5593 5595 5596 5602 5609 5615 5621 5628 5634 5637 5639 5641 5640 5646 5645 5648 5650 5650 5649 5646 5642 5641
5481 5477 5473 5469 5473 5478 5488 5480 5480 5482 5486 5492 5494 5493 5490 5488 5497 5518 5528 5532 5535 5540 5543 5548 5553 5556 5558 5561 5566 5571 5569 5579 5586 5588 5588 5588 5588 5594 5604 5617 5627 5631 5632 5634 5638 5642 5641 5643 5645 5646 5646 5646 5645 5642